RH
57 57 50 50 41 32 33 38 40 42 43 41 39 37 36 38 42 44 58 63 52 52 80 74 43 35 35 35 32 30 24 22 22 23 26 27 27 34 44 53 53 55 58 54
57 58 61 65 59 50 43 35 30 31 32 35 37 37 34 32 34 35 38 44 57 50 30 30 29 27 26 25 24 22 22 27 28 31 38 47 57 64 59 62 64 54 47 44
54 55 50 55 60 61 62 61 53 44 36 33 32 30 29 29 29 27 26 26 27 27 26 25 24 24 25 27 29 33 39 45 52 60 64 65 60 60 58 52 50 49 49 50
66 64 57 53 54 54 57 59 62 62 53 57 56 53 53 51 48 44 42 40 39 37 36 37 41 46 50 54 58 62 65 68 71 68 64 63 57 53 54 53 53 52 51 49
84 70 65 67 72 68 61 59 60 60 64 66 66 66 70 79 81 81 77 72 68 69 72 76 78 78 77 74 71 71 73 73 74 67 60 58 58 56 55 53 50 45 37 30
89 96 86 76 74 77 76 70 68 62 56 56 58 66 80 87 94 93 90 89 88 85 82 81 82 83 84 85 84 82 76 71 66 61 59 58 57 54 46 35 30 27 23 20
100 98 95 97 94 91 85 82 82 81 76 73 76 83 90 93 96 97 96 95 92 92 93 92 91 89 86 82 79 76 72 68 68 67 63 56 46 34 28 24 20 18 15 13
99 100 98 99 98 97 91 90 97 98 95 91 90 92 97 97 96 95 95 94 95 96 96 97 99 99 96 90 82 80 78 73 68 62 46 34 29 24 20 17 15 13 11 10
90 94 100 97 94 99 98 98 96 97 98 98 98 98 98 98 98 97 97 97 98 99 99 99 100 100 98 93 88 83 76 64 47 36 28 23 20 17 15 14 12 12 11 10
79 83 93 94 99 96 98 99 100 99 96 96 97 98 98 98 98 98 98 98 98 98 98 98 95 98 96 92 85 72 54 40 30 24 21 18 15 14 12 12 12 11 8 6
65 81 94 98 98 99 96 98 96 97 100 100 100 100 99 100 100 100 100 100 100 99 99 100 96 93 87 71 54 44 33 26 22 17 14 12 12 11 11 11 8 6 7 8
61 68 94 96 96 97 92 88 85 89 93 98 100 100 100 100 100 100 99 99 100 100 99 96 87 71 51 41 33 26 22 17 14 12 11 10 10 10 8 6 6 9 11 15
80 94 96 98 98 86 80 85 82 79 79 86 94 98 100 100 100 99 99 100 99 96 88 77 60 46 34 25 22 18 14 12 11 10 10 9 8 6 4 5 8 11 15 17
100 100 99 97 93 88 88 84 78 79 82 87 90 92 95 94 95 99 96 92 88 82 70 55 42 30 24 19 16 13 11 10 9 8 7 6 5 6 8 9 10 13 16 20
100 100 97 98 96 91 89 82 80 85 88 91 96 98 98 100 100 99 96 89 76 62 48 36 28 24 19 14 12 10 9 8 6 5 5 7 10 12 14 15 15 16 27 39
97 98 99 97 98 93 91 88 84 86 93 97 98 100 100 100 100 97 86 69 55 42 34 28 23 17 13 11 9 8 5 4 5 8 11 16 20 23 25 26 30 38 48 59
97 99 100 100 97 92 95 89 89 91 94 97 100 100 96 94 92 79 63 50 39 36 30 20 14 11 10 7 5 4 5 8 14 20 24 26 29 32 37 41 44 48 56 68
100 100 100 100 95 94 90 91 95 95 98 100 98 93 87 84 73 58 47 43 37 27 18 13 10 8 6 4 5 9 14 18 17 13 11 11 12 15 19 24 30 31 28 30
100 100 100 100 99 95 95 97 100 100 98 95 93 90 84 69 56 47 39 33 24 16 12 9 6 4 5 10 13 14 11 10 11 13 15 16 18 20 22 23 23 24 26 30
100 100 100 99 100 97 95 98 97 95 95 94 90 80 70 58 46 39 32 23 16 11 8 5 4 8 11 10 9 10 12 15 18 20 22 23 23 23 24 28 33 41 53 63
100 100 100 100 95 93 96 98 100 97 94 85 76 68 56 46 39 31 22 15 10 6 5 8 12 14 13 15 15 16 20 26 33 35 35 31 26 25 28 33 40 49 62 68
100 100 100 94 94 99 100 100 97 92 83 76 65 54 45 38 27 19 13 8 6 8 11 14 18 22 25 25 27 28 29 33 38 43 46 46 42 40 44 49 53 60 66 77
100 100 99 100 100 100 97 94 88 83 74 63 52 42 34 24 17 11 6 8 11 15 18 23 28 31 34 37 40 42 46 46 47 45 44 45 47 49 53 57 60 63 70 77
100 100 100 100 98 95 92 87 79 68 55 46 38 29 22 14 9 7 11 13 20 34 43 48 51 54 56 60 62 66 71 70 61 56 54 56 58 59 62 67 70 72 74 74
100 100 100 98 93 89 84 73 61 48 38 31 25 19 12 7 12 19 22 29 43 46 49 52 56 59 60 62 64 67 72 74 76 78 81 80 77 83 87 86 84 88 92 92
100 100 97 94 88 76 62 48 39 32 26 21 16 9 8 14 22 27 33 42 48 55 58 60 62 64 66 64 65 68 70 72 74 77 80 84 88 90 93 95 95 94 95 97
100 96 91 77 61 49 40 34 29 25 20 12 8 9 16 27 30 40 43 45 53 58 62 64 66 68 67 68 70 69 69 69 69 72 76 78 79 79 83 86 90 91 92 95
Wind_Speed
10 9 8 8 7 5 3 3 1 3 5 13 11 10 13 15 17 15 16 27 35 41 39 39 40 41 42 44 45 49 51 54 56 58 58 60 61 63 65 67 70 73 75 76
15 16 12 10 9 8 6 5 6 6 6 6 9 16 17 17 18 21 19 17 22 30 32 35 38 41 44 47 50 52 54 56 57 59 61 63 66 69 71 73 75 77 79 81
19 20 18 13 16 14 11 8 9 9 8 9 10 12 14 16 18 20 22 25 28 31 35 39 42 44 46 48 50 52 55 57 60 63 66 69 72 73 75 77 79 81 84 87
26 25 23 21 19 18 17 15 13 11 11 11 13 13 15 17 20 22 24 27 30 33 36 39 42 45 48 51 54 56 59 62 65 68 70 72 73 75 78 81 84 87 90 92
25 26 26 25 24 23 23 21 21 20 20 20 20 22 23 24 26 28 30 32 35 38 41 44 47 50 53 55 58 61 64 66 68 69 71 73 77 80 83 86 89 91 93 96
29 27 27 22 25 27 29 25 26 27 27 27 29 30 32 32 32 34 36 38 41 44 47 50 52 55 57 60 62 63 65 67 69 72 76 79 81 84 87 90 93 97 99 101
28 29 29 28 27 29 28 29 29 30 31 32 33 34 36 37 38 38 40 42 45 48 51 53 55 56 58 60 63 66 68 70 73 75 79 83 86 88 92 96 98 101 104 106
31 30 28 27 29 31 32 32 32 32 34 35 36 38 39 40 41 43 44 46 49 50 52 54 55 57 60 63 65 67 70 74 78 81 83 86 90 94 97 101 103 106 109 110
38 34 31 29 28 28 32 34 35 34 34 35 37 39 41 42 44 46 48 50 51 52 53 55 58 60 62 65 69 72 74 76 79 82 87 91 94 98 101 105 108 110 110 107
45 40 40 37 35 34 33 34 36 38 39 39 40 41 42 44 46 47 48 49 51 53 56 59 62 63 66 68 71 73 75 78 82 86 91 95 98 101 104 107 108 104 94 84
48 47 47 41 38 39 39 39 39 40 41 41 43 45 47 47 47 47 48 51 54 56 57 59 62 64 66 67 71 74 78 82 87 92 95 97 101 104 107 105 93 83 74 70
51 51 51 45 40 39 39 41 41 41 43 45 46 46 46 46 47 48 51 53 54 56 58 59 61 64 67 72 76 79 83 88 92 95 98 102 105 105 95 84 75 71 68 66
54 56 54 46 42 39 39 40 40 41 42 44 46 46 46 46 48 50 52 53 56 58 59 60 64 67 72 77 81 84 88 92 96 100 103 103 99 91 83 71 69 64 65 65
58 57 52 44 41 39 40 41 41 42 42 42 44 45 47 49 50 52 54 56 58 59 60 64 68 73 79 82 85 90 94 98 101 101 97 90 83 77 74 70 65 64 61 54
52 49 45 42 41 42 41 41 40 41 42 43 43 44 47 49 50 53 55 57 58 61 65 69 73 79 83 87 91 96 99 99 95 89 83 78 74 72 70 68 65 57 47 46
54 48 44 46 45 43 39 38 40 39 41 43 44 45 46 49 51 53 56 59 62 66 70 75 79 83 89 94 97 97 94 88 83 80 76 73 71 68 64 59 54 53 54 54
55 49 49 47 45 42 41 40 40 40 42 43 43 45 47 50 53 56 60 64 68 72 77 80 83 89 93 93 92 88 83 79 77 76 74 72 70 68 66 64 63 62 60 57
54 51 49 46 44 42 42 41 40 40 40 41 45 48 50 53 56 60 64 68 73 77 81 86 90 91 89 86 83 80 78 77 75 74 72 69 66 64 62 61 60 58 57 55
51 50 47 43 43 42 41 40 38 38 42 45 48 49 51 55 60 64 68 72 77 80 85 87 86 83 79 76 74 72 69 67 66 64 62 59 57 55 54 53 51 49 46 44
49 46 43 43 42 40 39 38 40 42 45 47 49 51 54 60 65 68 72 77 80 83 84 80 76 71 66 62 60 59 57 55 52 49 47 46 44 43 41 40 39 39 38 37
41 39 39 38 37 37 38 40 42 45 46 48 50 55 59 65 68 72 76 77 79 76 70 66 60 55 53 51 48 46 43 41 40 39 38 37 36 35 33 32 31 31 30 30
34 33 32 34 35 37 41 43 43 45 47 51 55 59 64 67 71 74 75 72 65 60 54 48 45 43 41 39 37 36 35 34 34 33 33 32 29 26 25 25 24 23 22 19
29 30 31 35 38 42 42 42 43 46 50 54 58 62 65 69 71 68 60 56 50 43 37 35 34 34 34 33 33 32 31 31 30 30 28 27 26 24 22 21 19 17 16 16
27 32 36 40 41 39 40 42 45 49 53 57 61 63 66 64 57 52 49 43 34 31 32 33 33 33 33 33 32 32 32 32 30 29 27 25 24 23 21 20 20 19 17 16
33 37 37 37 38 39 42 45 49 52 55 58 60 60 57 49 43 41 38 29 30 33 35 36 36 35 34 34 34 33 32 31 31 30 29 28 26 25 25 24 23 22 22 22
32 33 34 36 38 40 44 47 50 53 52 52 54 48 42 38 35 35 30 29 34 37 37 36 36 36 35 34 33 33 33 32 32 31 31 30 30 29 29 28 27 26 26 26
30 32 34 37 40 43 46 49 50 50 49 46 42 38 34 32 32 32 30 34 36 36 36 36 35 34 33 33 33 34 34 35 35 35 34 34 34 34 33 33 33 32 32 31
Wind_Direction
333 341 344 350 339 321 299 255 271 286 174 171 169 178 194 204 216 228 233 236 237 232 240 257 263 267 270 270 270 271 270 273 276 278 281 282 284 285 286 289 290 289 289 288
308 311 318 328 327 330 322 303 289 247 242 228 215 212 216 216 215 212 215 231 242 241 245 253 255 258 260 264 269 272 274 276 280 281 283 284 286 288 288 287 287 286 287 289
285 288 295 303 304 309 309 296 293 279 259 250 240 230 234 241 243 242 241 240 243 248 252 255 260 264 267 270 272 275 277 279 281 282 285 285 285 285 285 287 289 290 291 292
273 275 277 282 286 290 292 289 285 279 258 256 256 256 258 258 258 257 257 257 257 258 260 263 266 269 271 273 274 276 279 281 283 282 282 283 285 287 289 290 291 292 293 294
273 271 270 272 274 274 272 274 276 274 266 267 270 268 271 268 265 266 266 265 265 266 267 269 270 272 274 276 277 278 278 278 280 282 285 287 289 290 291 291 293 295 296 296
272 269 270 268 268 266 266 265 267 268 267 266 267 268 267 268 267 267 267 267 267 267 267 268 269 270 271 273 275 277 279 281 284 285 287 288 290 292 295 297 297 297 298 298
277 278 276 272 266 266 267 265 261 263 264 265 265 266 268 268 270 270 269 268 268 270 272 273 274 275 277 278 279 279 280 281 284 288 290 292 294 295 296 298 299 299 300 302
278 281 284 284 276 267 265 265 266 265 266 266 267 267 268 270 272 273 273 273 274 273 273 272 272 273 275 277 279 281 284 287 290 292 295 297 298 299 300 301 302 302 303 304
279 279 284 283 285 282 274 269 266 265 267 269 269 270 271 272 274 276 278 277 276 274 274 274 275 277 280 281 282 285 288 292 294 297 298 299 300 301 302 303 303 303 304 305
282 281 286 284 289 286 283 281 276 271 270 270 271 273 274 276 278 278 278 277 277 277 278 278 279 280 282 285 287 290 292 295 298 299 300 301 303 303 303 303 303 304 305 305
276 279 284 285 290 289 288 289 286 280 275 273 271 272 275 278 279 279 278 279 279 279 280 282 283 285 287 290 292 295 298 299 300 302 303 303 303 302 301 302 304 305 304 304
274 278 283 289 292 287 287 289 289 287 282 279 276 277 278 279 278 279 281 282 283 284 285 286 288 291 295 296 298 299 301 303 304 304 302 301 299 298 302 304 303 303 303 302
265 269 280 290 290 285 286 289 289 288 287 282 280 280 281 281 283 284 284 284 285 286 288 291 294 296 297 299 300 303 304 303 302 300 298 298 300 302 302 300 301 301 300 299
269 275 282 283 285 283 285 287 289 289 285 281 280 281 280 281 284 284 284 285 287 289 292 295 297 299 300 302 303 303 301 300 298 297 299 300 301 300 300 301 300 299 297 295
279 281 279 283 285 286 286 287 287 285 283 281 279 280 281 282 283 284 285 287 290 295 298 299 300 301 302 302 301 299 298 297 298 299 300 300 299 300 300 299 299 297 293 292
275 281 282 281 284 286 284 283 282 281 281 280 280 280 282 284 285 286 289 294 297 299 300 301 302 302 301 300 298 298 298 299 300 300 299 299 299 299 298 297 295 292 292 292
271 279 278 280 285 284 281 281 280 280 280 281 281 282 284 286 287 291 297 300 302 302 302 302 302 301 299 299 299 300 301 300 299 300 299 298 297 295 294 292 291 291 291 290
273 276 274 278 280 280 279 278 278 280 280 280 282 285 287 289 293 299 302 301 301 302 302 302 301 301 301 302 302 301 300 299 299 299 297 296 296 295 293 292 292 291 290 289
270 270 273 275 276 277 276 277 278 280 282 283 286 288 290 295 299 300 301 302 302 303 302 302 303 302 302 302 301 301 302 303 302 302 301 300 297 295 294 292 292 293 292 291
264 267 269 272 272 272 274 276 281 283 284 286 287 291 297 299 300 301 303 303 303 304 303 303 304 306 306 306 307 308 309 310 311 310 308 306 304 302 299 297 295 295 295 294
258 262 265 266 268 270 275 278 281 285 285 287 292 296 299 300 301 303 304 304 304 305 307 309 311 311 312 314 315 316 317 319 320 320 319 317 314 310 307 305 303 302 301 299
254 255 258 263 269 272 275 280 282 285 289 292 296 298 300 301 303 305 304 305 307 310 313 316 318 321 323 325 328 330 331 331 329 330 331 333 332 330 327 323 319 314 311 308
252 256 263 267 270 274 278 281 285 289 292 295 297 299 301 304 305 305 306 311 314 316 320 325 330 333 335 336 337 337 340 340 342 342 340 340 341 343 344 343 341 339 334 324
258 261 263 269 274 276 280 285 288 291 294 296 299 302 305 305 304 307 310 313 315 320 326 328 329 330 331 332 333 336 339 343 345 346 346 347 348 349 350 350 349 345 339 334
257 264 268 271 276 281 285 288 291 295 298 301 304 306 304 303 303 309 313 311 316 321 323 324 324 322 321 323 326 328 329 330 331 331 332 332 332 332 332 330 327 325 322 317
262 265 270 275 279 283 287 292 296 300 304 305 304 302 300 299 304 311 308 309 317 320 319 318 317 318 320 321 323 324 325 325 325 324 324 323 321 319 319 319 318 316 314 311
267 270 275 279 284 289 293 297 301 304 304 302 298 296 295 299 305 308 306 311 314 315 314 315 317 319 321 322 322 322 321 320 319 317 316 315 314 313 312 311 309 308 308 307